Precipitable_Water
1.03 1.06 1.09 0.97 0.62 0.63 0.50 0.57 0.75 0.75 0.75 0.89 0.94 0.86 0.72 0.74 0.63 0.48 0.70 0.71 0.74 0.69 0.69 0.70 0.82 0.86 0.88 0.88 0.91 0.94 0.95 1.01 1.12 1.13 1.11 1.13 1.17 1.18 1.22 1.25 1.38 1.57 1.72 1.80 1.84 1.85 1.85 1.75 1.73
1.02 0.98 0.94 0.69 0.46 0.38 0.44 0.65 0.66 0.77 0.87 0.92 0.80 0.76 0.70 0.55 0.69 0.58 0.57 0.65 0.67 0.62 0.60 0.57 0.70 0.71 0.74 0.74 0.74 0.76 0.81 1.00 0.99 0.97 1.00 1.11 1.16 1.13 1.13 1.14 1.17 1.23 1.35 1.49 1.63 1.75 1.83 1.87 1.84
0.94 0.82 0.56 0.48 0.41 0.36 0.41 0.57 0.63 0.72 0.82 0.79 0.68 0.67 0.61 0.58 0.59 0.57 0.63 0.61 0.54 0.48 0.51 0.49 0.58 0.61 0.64 0.64 0.65 0.69 0.71 0.78 0.84 0.88 0.92 0.91 0.98 1.07 1.14 1.18 1.17 1.12 1.15 1.22 1.32 1.43 1.64 1.77 1.81
0.70 0.62 0.55 0.37 0.32 0.44 0.49 0.56 0.63 0.63 0.64 0.67 0.62 0.49 0.54 0.56 0.52 0.54 0.48 0.43 0.41 0.40 0.39 0.40 0.45 0.47 0.49 0.49 0.53 0.55 0.61 0.66 0.67 0.72 0.78 0.77 0.85 0.91 0.95 1.01 1.04 1.11 1.11 1.12 1.14 1.24 1.29 1.44 1.63
0.64 0.49 0.34 0.32 0.34 0.43 0.51 0.57 0.60 0.55 0.53 0.52 0.55 0.42 0.40 0.42 0.48 0.44 0.40 0.36 0.34 0.33 0.33 0.32 0.35 0.35 0.35 0.35 0.37 0.39 0.42 0.48 0.52 0.54 0.58 0.62 0.65 0.72 0.80 0.83 0.87 0.96 1.06 1.02 1.06 1.10 1.15 1.23 1.29
0.46 0.45 0.29 0.25 0.34 0.44 0.46 0.50 0.50 0.48 0.49 0.50 0.43 0.33 0.28 0.35 0.35 0.35 0.34 0.32 0.31 0.29 0.29 0.27 0.26 0.27 0.28 0.28 0.29 0.31 0.34 0.39 0.39 0.41 0.44 0.44 0.46 0.52 0.55 0.60 0.66 0.81 0.91 1.01 1.02 0.98 1.07 1.09 1.16
0.40 0.35 0.28 0.35 0.37 0.41 0.45 0.49 0.42 0.40 0.36 0.32 0.38 0.26 0.29 0.30 0.32 0.31 0.29 0.26 0.25 0.24 0.23 0.23 0.24 0.25 0.25 0.26 0.29 0.30 0.34 0.36 0.34 0.35 0.37 0.35 0.35 0.37 0.33 0.38 0.47 0.58 0.77 0.87 0.96 1.05 0.98 1.04 1.05
0.46 0.41 0.33 0.38 0.36 0.35 0.42 0.43 0.42 0.37 0.29 0.31 0.31 0.24 0.23 0.27 0.26 0.25 0.24 0.23 0.23 0.24 0.24 0.24 0.24 0.24 0.24 0.25 0.26 0.30 0.32 0.32 0.33 0.32 0.31 0.29 0.31 0.25 0.23 0.24 0.24 0.40 0.52 0.65 0.79 0.90 1.06 1.05 1.02
0.52 0.33 0.30 0.35 0.35 0.35 0.42 0.39 0.37 0.31 0.25 0.26 0.27 0.26 0.26 0.25 0.24 0.22 0.23 0.23 0.22 0.22 0.23 0.23 0.24 0.24 0.26 0.28 0.29 0.32 0.32 0.34 0.33 0.31 0.31 0.31 0.27 0.26 0.24 0.23 0.25 0.28 0.34 0.40 0.58 0.71 0.81 0.97 1.03
0.41 0.32 0.32 0.40 0.42 0.38 0.40 0.34 0.30 0.25 0.24 0.25 0.26 0.25 0.25 0.24 0.23 0.22 0.21 0.19 0.20 0.21 0.22 0.24 0.25 0.28 0.32 0.34 0.33 0.36 0.35 0.35 0.34 0.35 0.36 0.36 0.36 0.35 0.34 0.33 0.30 0.29 0.26 0.24 0.28 0.41 0.60 0.72 0.83
0.35 0.30 0.36 0.37 0.40 0.37 0.32 0.30 0.29 0.26 0.24 0.26 0.25 0.25 0.24 0.22 0.20 0.18 0.18 0.20 0.21 0.23 0.25 0.29 0.31 0.39 0.41 0.43 0.46 0.46 0.45 0.44 0.44 0.43 0.41 0.41 0.40 0.40 0.38 0.36 0.34 0.31 0.27 0.23 0.21 0.21 0.31 0.42 0.61
0.26 0.33 0.33 0.33 0.33 0.32 0.29 0.28 0.26 0.28 0.27 0.27 0.26 0.23 0.20 0.18 0.18 0.19 0.20 0.21 0.22 0.24 0.30 0.34 0.45 0.49 0.51 0.53 0.52 0.50 0.50 0.51 0.50 0.50 0.49 0.47 0.45 0.42 0.42 0.40 0.38 0.35 0.33 0.29 0.25 0.23 0.24 0.28 0.36
0.26 0.30 0.33 0.34 0.33 0.30 0.29 0.27 0.27 0.26 0.26 0.25 0.22 0.19 0.18 0.18 0.21 0.22 0.21 0.22 0.23 0.29 0.35 0.48 0.53 0.57 0.57 0.58 0.58 0.59 0.58 0.57 0.56 0.53 0.52 0.51 0.48 0.46 0.45 0.43 0.41 0.39 0.37 0.34 0.30 0.26 0.25 0.26 0.29
0.30 0.32 0.31 0.30 0.28 0.29 0.28 0.28 0.28 0.24 0.24 0.20 0.18 0.18 0.19 0.20 0.22 0.21 0.20 0.22 0.27 0.35 0.46 0.56 0.59 0.60 0.57 0.57 0.59 0.61 0.63 0.62 0.61 0.59 0.56 0.55 0.53 0.50 0.48 0.46 0.44 0.42 0.41 0.39 0.36 0.32 0.29 0.27 0.30
0.29 0.25 0.27 0.28 0.29 0.28 0.30 0.24 0.23 0.22 0.19 0.17 0.17 0.18 0.19 0.21 0.22 0.20 0.20 0.24 0.31 0.40 0.53 0.57 0.58 0.52 0.51 0.48 0.51 0.54 0.63 0.64 0.63 0.63 0.62 0.59 0.57 0.55 0.52 0.50 0.49 0.48 0.46 0.43 0.41 0.38 0.34 0.31 0.30
0.26 0.27 0.22 0.27 0.28 0.29 0.28 0.19 0.19 0.18 0.16 0.15 0.16 0.18 0.19 0.19 0.18 0.19 0.22 0.28 0.37 0.47 0.55 0.59 0.56 0.46 0.46 0.45 0.46 0.49 0.51 0.55 0.57 0.60 0.63 0.63 0.62 0.59 0.55 0.54 0.53 0.54 0.52 0.48 0.44 0.41 0.37 0.34 0.31
0.23 0.17 0.20 0.23 0.30 0.26 0.24 0.18 0.17 0.17 0.16 0.15 0.16 0.17 0.17 0.15 0.15 0.19 0.25 0.33 0.42 0.54 0.59 0.56 0.51 0.44 0.42 0.42 0.43 0.44 0.46 0.47 0.48 0.50 0.54 0.59 0.62 0.64 0.62 0.59 0.58 0.58 0.56 0.53 0.49 0.46 0.43 0.38 0.34
0.16 0.17 0.20 0.19 0.22 0.23 0.20 0.16 0.15 0.16 0.16 0.15 0.15 0.17 0.15 0.11 0.14 0.21 0.27 0.37 0.49 0.58 0.60 0.52 0.46 0.42 0.39 0.40 0.41 0.43 0.44 0.47 0.49 0.49 0.49 0.51 0.53 0.56 0.60 0.61 0.62 0.63 0.60 0.58 0.54 0.51 0.49 0.45 0.41
0.20 0.18 0.16 0.18 0.21 0.18 0.16 0.14 0.14 0.15 0.15 0.14 0.15 0.14 0.11 0.10 0.18 0.25 0.32 0.42 0.52 0.58 0.47 0.41 0.37 0.38 0.36 0.36 0.37 0.41 0.43 0.47 0.50 0.52 0.54 0.54 0.54 0.55 0.57 0.61 0.62 0.64 0.62 0.60 0.58 0.54 0.50 0.47 0.46
0.18 0.15 0.14 0.16 0.19 0.17 0.14 0.13 0.14 0.15 0.14 0.14 0.14 0.11 0.10 0.12 0.19 0.28 0.35 0.46 0.54 0.43 0.39 0.35 0.34 0.34 0.33 0.38 0.41 0.46 0.48 0.51 0.54 0.56 0.56 0.57 0.57 0.57 0.58 0.62 0.63 0.65 0.63 0.60 0.58 0.53 0.49 0.48 0.49
0.16 0.13 0.11 0.11 0.16 0.17 0.14 0.13 0.13 0.14 0.14 0.14 0.13 0.10 0.11 0.15 0.23 0.31 0.39 0.48 0.43 0.37 0.35 0.32 0.32 0.32 0.35 0.39 0.39 0.41 0.49 0.51 0.50 0.54 0.58 0.61 0.60 0.59 0.62 0.66 0.66 0.65 0.63 0.58 0.54 0.53 0.50 0.45 0.48
0.11 0.14 0.12 0.14 0.13 0.09 0.16 0.09 0.12 0.12 0.11 0.10 0.09 0.09 0.11 0.18 0.29 0.35 0.45 0.40 0.35 0.33 0.32 0.31 0.31 0.32 0.36 0.36 0.34 0.33 0.41 0.43 0.50 0.56 0.60 0.63 0.65 0.64 0.66 0.67 0.67 0.65 0.61 0.55 0.54 0.55 0.52 0.50 0.44
0.10 0.14 0.15 0.14 0.12 0.13 0.13 0.11 0.09 0.10 0.08 0.07 0.08 0.10 0.12 0.25 0.32 0.42 0.40 0.32 0.32 0.31 0.31 0.31 0.31 0.32 0.33 0.35 0.38 0.40 0.45 0.50 0.54 0.56 0.55 0.59 0.65 0.68 0.69 0.68 0.64 0.58 0.55 0.55 0.54 0.53 0.52 0.51 0.49
0.13 0.15 0.15 0.14 0.12 0.08 0.10 0.08 0.07 0.08 0.07 0.07 0.08 0.10 0.14 0.28 0.38 0.40 0.29 0.32 0.30 0.31 0.32 0.30 0.29 0.30 0.32 0.34 0.42 0.47 0.50 0.52 0.52 0.52 0.54 0.58 0.62 0.65 0.65 0.61 0.55 0.56 0.56 0.53 0.54 0.54 0.52 0.51 0.51
0.11 0.10 0.06 0.06 0.06 0.05 0.09 0.07 0.07 0.09 0.09 0.08 0.09 0.11 0.16 0.30 0.40 0.32 0.24 0.27 0.28 0.29 0.28 0.28 0.30 0.30 0.33 0.34 0.41 0.45 0.49 0.53 0.55 0.56 0.58 0.59 0.59 0.58 0.55 0.54 0.52 0.52 0.57 0.56 0.55 0.54 0.53 0.53 0.51
0.11 0.09 0.06 0.04 0.04 0.05 0.08 0.05 0.06 0.10 0.09 0.09 0.11 0.13 0.18 0.33 0.37 0.29 0.25 0.27 0.29 0.29 0.28 0.29 0.31 0.31 0.35 0.37 0.40 0.45 0.48 0.50 0.54 0.56 0.57 0.56 0.55 0.53 0.57 0.55 0.53 0.54 0.54 0.53 0.54 0.54 0.54 0.53 0.54
0.11 0.08 0.10 0.07 0.08 0.06 0.06 0.07 0.09 0.10 0.06 0.09 0.10 0.13 0.19 0.34 0.34 0.26 0.25 0.28 0.29 0.29 0.29 0.31 0.32 0.34 0.36 0.37 0.41 0.45 0.47 0.49 0.51 0.54 0.57 0.58 0.61 0.62 0.62 0.61 0.56 0.53 0.52 0.52 0.53 0.51 0.51 0.52 0.53
0.12 0.12 0.07 0.08 0.04 0.04 0.04 0.04 0.05 0.06 0.06 0.09 0.09 0.12 0.21 0.35 0.31 0.26 0.25 0.28 0.29 0.30 0.32 0.33 0.35 0.35 0.37 0.39 0.43 0.44 0.46 0.48 0.48 0.51 0.50 0.53 0.56 0.58 0.59 0.59 0.59 0.55 0.52 0.52 0.50 0.49 0.50 0.51 0.55
0.12 0.10 0.10 0.09 0.07 0.04 0.04 0.04 0.09 0.07 0.07 0.09 0.10 0.13 0.22 0.35 0.30 0.25 0.25 0.28 0.29 0.31 0.32 0.32 0.35 0.36 0.38 0.40 0.43 0.43 0.43 0.43 0.44 0.43 0.43 0.45 0.48 0.52 0.54 0.57 0.57 0.59 0.57 0.54 0.49 0.47 0.49 0.50 0.52
0.15 0.13 0.11 0.07 0.06 0.07 0.06 0.04 0.10 0.08 0.08 0.11 0.11 0.14 0.25 0.37 0.30 0.26 0.26 0.28 0.28 0.29 0.31 0.32 0.35 0.36 0.40 0.41 0.41 0.40 0.40 0.38 0.37 0.36 0.37 0.38 0.39 0.43 0.46 0.50 0.55 0.57 0.59 0.59 0.47 0.45 0.46 0.46 0.48
Wind_Speed
3 3 3 2 2 2 3 4 5 6 5 6 8 8 6 9 11 10 15 17 19 20 22 23 24 24 25 26 26 27 27 26 25 26 26 25 25 25 25 24 24 22 22 22 21 22 24 24 24
3 3 2 2 2 3 4 4 5 7 6 8 9 10 11 11 13 14 17 20 22 23 25 27 28 28 30 30 31 31 30 30 30 30 30 29 29 28 28 28 27 27 26 25 25 24 24 24 26
2 2 2 3 3 3 4 6 8 6 9 11 10 11 13 15 16 17 21 23 24 26 28 30 32 33 34 34 34 35 35 35 35 35 35 34 33 33 32 32 32 31 30 30 29 28 28 27 26
3 3 3 3 3 5 5 8 10 10 11 12 12 13 13 17 18 21 23 25 27 30 32 34 35 36 37 38 38 39 39 39 39 39 39 38 38 37 37 36 35 35 35 34 33 32 32 31 30
3 4 4 4 5 5 6 8 10 10 11 14 15 15 16 19 21 23 26 29 31 34 35 37 38 39 40 41 41 41 42 42 42 42 42 42 41 41 41 41 40 39 38 38 38 36 35 34 33
4 4 4 5 6 6 7 9 11 12 14 16 16 17 19 22 24 28 30 32 34 36 38 40 41 42 43 44 45 45 45 45 45 45 45 44 44 43 43 44 44 43 42 41 40 40 39 38 37
3 5 5 5 6 8 10 11 13 14 16 18 19 19 21 25 28 30 32 34 37 39 40 42 43 45 46 47 47 47 47 48 48 48 48 47 47 47 46 46 46 46 46 45 44 43 43 42 40
5 6 6 7 8 9 11 12 13 16 18 19 20 21 24 27 30 32 34 36 37 39 41 43 45 48 49 50 50 49 49 48 47 46 45 45 45 46 48 48 48 48 48 49 48 47 44 44 44
6 7 7 9 9 10 11 13 15 15 16 18 20 21 25 29 31 33 35 37 39 42 45 47 49 50 51 51 49 48 46 45 44 43 43 43 44 45 45 46 46 48 50 50 51 50 49 48 47
8 8 10 12 10 10 12 13 14 16 18 20 21 24 27 30 32 34 37 40 43 46 48 49 51 51 51 49 47 45 44 43 43 42 42 43 43 43 44 45 46 46 47 48 51 52 53 53 51
10 8 8 10 8 9 11 13 15 15 19 21 23 26 28 30 33 36 39 43 46 49 50 50 49 49 47 44 43 42 41 40 39 39 38 39 38 38 37 38 39 42 46 47 48 50 53 54 55
7 10 9 8 9 11 13 13 14 16 18 20 23 26 29 32 35 38 42 46 49 50 48 46 44 42 40 38 36 34 34 33 33 34 34 33 32 32 32 33 33 34 36 41 44 45 47 52 55
9 8 10 8 9 11 10 14 14 16 19 22 24 28 31 35 38 41 45 48 49 46 44 40 36 34 32 31 30 30 28 29 30 31 32 32 32 32 32 32 32 32 33 33 37 42 44 46 48
8 7 8 9 10 11 12 15 16 18 21 23 26 30 34 38 41 44 47 48 45 42 37 31 31 32 32 30 29 28 28 28 28 29 30 31 32 32 32 32 32 32 33 33 33 34 40 43 45
7 10 10 11 13 10 12 17 17 18 22 25 29 32 36 40 44 46 48 46 42 36 30 30 32 32 31 31 29 29 28 28 28 28 28 30 31 33 33 33 33 33 33 34 33 33 33 38 42
11 11 12 12 11 13 16 15 16 20 23 27 31 34 39 42 46 48 45 42 36 30 29 30 32 31 31 31 31 30 30 30 29 29 29 30 30 31 32 34 34 34 34 34 34 33 34 35 37
14 13 12 12 14 14 16 14 16 21 24 29 33 37 42 45 48 45 43 37 31 29 29 30 31 31 32 32 32 31 31 31 31 31 31 31 32 32 32 33 33 34 35 35 35 35 36 36 37
14 14 13 12 14 16 14 13 16 22 27 31 36 40 44 48 47 44 37 32 28 28 30 31 32 32 34 32 32 32 32 32 33 33 33 34 33 33 33 33 33 34 34 34 35 37 37 37 37
14 13 13 14 15 14 14 13 17 23 29 34 38 43 47 47 43 37 32 29 29 28 30 32 33 34 34 33 34 34 34 34 34 34 35 35 35 34 33 33 33 33 33 33 34 35 36 37 38
13 13 15 15 15 15 13 14 19 23 30 35 40 46 48 44 38 32 29 29 29 30 32 33 35 35 35 35 36 36 36 36 35 35 36 36 35 34 32 32 32 31 32 32 33 33 34 35 36
15 15 15 16 14 16 14 17 20 25 31 37 42 45 42 39 33 30 30 30 30 30 34 34 35 36 36 38 38 37 36 35 34 34 34 33 31 30 29 29 28 28 29 30 31 31 32 33 34
15 17 17 13 12 14 15 19 23 27 33 40 45 42 37 33 30 30 30 29 31 32 34 35 36 38 38 38 37 37 35 34 34 32 31 29 26 24 24 25 26 27 28 28 28 29 30 32 32
16 19 16 14 12 15 17 20 22 28 35 44 44 39 32 30 30 30 30 30 32 33 36 36 37 37 37 36 36 34 33 32 32 30 30 26 24 22 22 23 25 25 25 25 26 26 27 29 31
21 16 17 15 15 17 18 19 23 29 38 43 40 33 30 30 30 29 30 32 33 34 35 35 36 36 36 36 36 36 36 34 31 30 28 26 24 23 23 23 23 23 23 23 23 25 26 27 28
23 19 17 17 17 16 18 20 22 29 37 39 37 31 29 30 29 30 30 32 33 34 35 34 36 36 36 36 36 38 38 35 31 31 28 27 25 24 23 22 21 21 19 20 21 22 23 24 25
20 19 16 16 17 19 20 20 23 28 37 37 32 28 28 29 29 30 31 32 32 33 35 35 36 37 37 37 38 38 38 36 33 32 31 29 26 25 24 22 21 20 19 19 19 19 20 21 21
19 20 17 17 17 19 19 22 24 32 39 36 32 28 28 29 29 30 30 30 32 32 34 35 36 37 37 37 38 38 39 38 37 35 33 31 29 27 26 23 22 20 18 17 16 18 18 17 17
18 18 18 20 19 20 21 22 25 36 40 37 33 27 28 28 28 29 28 30 31 32 34 35 36 37 37 37 39 40 40 40 40 38 36 34 31 29 27 24 22 19 17 16 15 15 14 15 15
19 19 20 17 18 17 21 23 25 34 38 36 31 27 27 27 27 27 27 29 31 32 34 34 36 36 37 39 39 41 42 42 43 41 38 35 33 30 27 24 21 18 15 13 12 12 13 13 13
16 17 18 17 19 19 20 23 26 33 37 34 30 25 26 25 26 25 26 29 30 32 33 34 35 36 38 39 40 41 43 44 45 43 39 36 34 30 27 24 21 17 12 10 10 10 12 12 9
Wind_Direction
281 285 267 299 313 336 312 313 309 315 312 326 342 331 329 321 313 300 303 307 308 307 308 309 309 307 305 305 301 301 298 296 294 292 290 289 287 285 283 280 278 279 275 274 273 268 263 261 259
280 263 281 289 315 315 299 310 323 318 301 306 317 315 319 311 310 304 305 308 308 307 306 306 306 305 303 302 299 298 295 293 291 290 289 287 284 283 281 279 277 274 273 272 271 269 268 264 260
269 281 283 304 308 296 284 305 300 323 326 311 307 314 308 306 306 302 305 306 305 306 305 305 304 303 301 299 297 295 292 290 288 288 286 285 282 280 279 277 275 273 272 270 269 268 266 264 262
269 296 306 305 314 307 304 310 296 294 313 318 308 311 307 312 303 304 305 306 305 305 305 303 302 301 300 298 295 293 291 289 287 285 284 283 280 278 277 274 274 272 270 269 268 266 265 264 261
288 294 311 306 304 297 309 314 327 314 309 316 305 306 306 309 306 306 306 306 305 304 304 303 302 300 299 297 295 293 291 288 286 284 283 281 279 277 275 273 272 270 269 267 266 265 264 262 260
297 290 311 284 284 296 310 314 317 320 318 309 311 307 306 308 310 308 307 306 306 305 305 304 302 301 299 297 295 292 289 287 285 283 282 280 278 276 275 272 271 268 267 266 265 263 262 261 259
295 308 290 285 276 298 298 302 313 314 313 316 307 307 306 310 311 310 309 309 308 307 306 304 303 301 299 297 295 292 289 287 285 283 281 279 277 275 274 272 270 268 266 264 263 262 261 258 258
307 309 306 297 280 295 302 304 310 311 311 307 309 309 308 311 312 311 311 310 310 309 307 306 304 303 300 298 295 292 289 286 285 283 282 280 278 276 273 272 270 267 265 263 261 260 259 257 255
310 313 300 294 290 297 292 301 311 314 318 318 315 313 311 313 313 314 314 313 312 311 309 306 306 303 301 298 294 293 290 288 286 284 282 281 279 277 275 274 271 268 265 263 261 259 257 256 254
321 314 312 303 301 300 306 307 307 311 317 318 316 317 317 318 317 316 316 315 314 312 311 308 306 304 301 298 294 292 289 288 286 284 283 282 281 279 276 274 272 268 267 265 261 258 256 254 253
325 319 314 330 327 315 313 316 312 310 318 318 317 315 319 320 319 318 317 316 315 314 312 311 308 308 305 301 297 293 291 288 286 284 283 283 282 280 278 276 274 271 269 265 262 259 255 253 252
340 339 325 321 322 319 317 316 324 323 318 320 321 320 322 323 322 320 318 317 316 316 315 314 313 314 312 307 303 298 296 294 289 285 284 284 282 280 279 279 277 276 272 267 263 260 258 254 251
353 332 338 334 337 331 328 325 324 326 323 322 324 327 326 324 323 322 321 320 319 319 318 319 320 322 323 320 314 309 304 301 295 290 285 283 282 280 279 279 278 276 275 273 267 261 258 256 253
351 6 347 336 332 324 326 321 320 325 322 328 328 327 326 325 325 323 323 322 321 321 323 325 327 326 325 323 322 318 312 309 304 298 291 285 281 279 278 278 277 276 275 273 272 268 260 256 254
360 348 342 327 325 324 329 334 328 327 327 330 329 327 327 326 326 324 324 323 323 323 324 327 328 327 327 326 324 321 318 316 311 306 300 294 286 280 277 277 276 276 274 273 273 270 266 260 255
344 341 334 319 320 321 327 324 330 329 333 332 330 328 329 327 326 325 326 326 325 325 326 327 329 330 329 328 326 323 318 315 312 310 304 298 292 286 280 277 276 275 274 273 270 269 267 264 259
343 335 335 333 324 328 329 327 328 333 335 334 332 330 329 328 328 328 329 329 329 330 330 330 329 330 330 328 326 323 320 317 313 310 306 302 296 289 283 280 277 276 274 272 270 269 267 265 261
338 338 341 338 335 337 339 334 331 336 339 336 334 333 332 331 330 330 332 333 333 333 333 333 333 331 331 328 327 324 321 319 315 312 306 302 298 292 287 282 279 276 274 273 270 268 267 264 262
340 345 347 342 340 341 340 338 334 338 342 339 336 336 334 333 334 336 338 339 338 338 338 337 336 333 332 330 328 325 322 319 316 312 308 303 298 294 288 283 281 277 274 274 272 270 268 264 261
354 353 349 347 343 344 344 338 338 341 343 341 339 339 337 337 340 344 345 344 344 342 342 339 339 337 335 332 329 326 323 320 317 313 311 305 299 294 290 285 282 278 276 275 274 272 269 266 261
352 350 347 340 346 349 349 341 340 341 343 344 343 340 341 344 348 350 349 349 349 347 345 343 342 340 337 334 330 327 324 323 322 319 317 312 304 297 291 288 284 280 278 277 275 273 270 267 263
357 352 343 348 350 344 345 343 346 343 345 346 343 345 347 352 354 352 352 353 352 351 349 346 345 343 340 338 338 335 331 330 328 326 325 320 315 306 300 294 289 284 281 278 277 276 273 268 265
349 352 354 357 355 353 347 348 346 349 346 345 347 349 353 356 355 354 354 354 354 352 351 350 350 349 350 349 348 346 342 338 336 334 333 330 324 317 311 304 297 291 284 281 279 278 276 273 266
354 359 4 4 358 355 356 353 352 351 346 347 349 352 355 356 355 356 356 356 356 355 355 356 357 359 358 358 358 355 349 343 341 340 338 334 329 323 317 312 306 300 289 283 283 283 280 277 270
6 5 356 0 360 353 353 355 349 349 349 349 350 352 354 356 357 357 358 358 359 359 0 1 2 2 2 2 0 359 358 355 351 348 344 339 334 329 325 321 315 311 300 290 288 286 284 280 273
3 8 11 353 354 349 350 354 352 353 351 352 351 352 353 355 357 358 358 360 1 3 3 4 3 2 2 2 1 0 1 359 356 352 348 344 338 333 329 325 322 315 308 300 295 289 291 286 275
360 8 2 2 359 358 355 354 357 353 353 353 352 352 354 356 357 358 360 3 3 3 3 3 3 2 3 3 2 2 0 358 355 351 346 342 337 332 327 322 321 318 314 308 302 300 294 290 278
12 4 3 4 2 353 354 353 353 352 353 353 352 352 353 356 358 359 2 3 3 3 3 3 4 4 4 4 3 2 0 358 355 351 347 342 337 335 330 325 318 317 317 313 309 311 301 295 282
359 3 8 8 5 358 354 353 355 353 352 352 351 352 354 356 358 0 2 3 3 3 4 4 5 5 5 4 3 2 1 360 357 353 350 347 343 339 335 330 325 317 316 321 320 321 319 302 293
1 2 3 7 354 0 358 351 356 354 352 353 352 353 355 356 358 1 2 3 4 4 4 5 5 6 6 5 5 4 3 2 1 360 359 358 356 353 348 340 333 324 317 319 329 336 338 326 305